This is the latest recevied weather packets stored in our database for station/object KM4RT-13. If no packets are shown the sender has not sent any weather packets the latest 10 day(s).
| Time | Temp. | Humidity | Pressure | Rain* | Wind** | Luminosity | Snow |
|---|---|---|---|---|---|---|---|
| 1777507904 | 19.44° C | 72% | 1011 hPa | 0 mm | - | 14 W/m² | - |
| 1777507602 | 19.44° C | 73% | 1010.8 hPa | 0 mm | - | 16 W/m² | - |
| 1777507298 | 19.44° C | 73% | 1010.5 hPa | 0 mm | - | 23 W/m² | - |
| 1777506995 | 19.44° C | 72% | 1010 hPa | 0 mm | - | 35 W/m² | - |
| 1777506693 | 19.44° C | 73% | 1010 hPa | 0 mm | - | 51 W/m² | - |
| 1777506389 | 19.44° C | 73% | 1009.9 hPa | 0 mm | - | 60 W/m² | - |
| 1777506085 | 19.44° C | 74% | 1009.8 hPa | 0 mm | - | 58 W/m² | - |
| 1777505781 | 20° C | 73% | 1010 hPa | 0 mm | - | 69 W/m² | - |
| 1777505478 | 19.44° C | 73% | 1010.1 hPa | 0 mm | - | 79 W/m² | - |
| 1777505175 | 19.44° C | 77% | 1010 hPa | 0 mm | - | 73 W/m² | - |
| 1777504871 | 19.44° C | 77% | 1009.9 hPa | 0 mm | - | 69 W/m² | - |
| 1777504569 | 20° C | 76% | 1010.1 hPa | 0 mm | - | 79 W/m² | - |
| 1777504264 | 20° C | 75% | 1010.4 hPa | 0 mm | - | 123 W/m² | - |
| 1777503960 | 20° C | 77% | 1010.3 hPa | 0 mm | - | 95 W/m² | - |
| 1777503656 | 20° C | 74% | 1010.4 hPa | 0 mm | - | 109 W/m² | - |
| 1777503353 | 20° C | 75% | 1010.5 hPa | 0 mm | - | 111 W/m² | - |
| 1777503049 | 20° C | 75% | 1010.4 hPa | 0 mm | - | 142 W/m² | - |
| 1777502747 | 20° C | 73% | 1010.7 hPa | 0 mm | - | 133 W/m² | - |
| 1777502444 | 20° C | 76% | 1010.9 hPa | 0 mm | - | 131 W/m² | - |
| 1777502140 | 20° C | 75% | 1010.7 hPa | 0 mm | - | 97 W/m² | - |
| 1777501839 | 20° C | 73% | 1010.7 hPa | 0 mm | - | 92 W/m² | - |
| 1777501535 | 20° C | 74% | 1010.9 hPa | 0 mm | - | 132 W/m² | - |
| 1777501232 | 19.44° C | 75% | 1011.1 hPa | 0 mm | - | 137 W/m² | - |
| 1777500930 | 20° C | 74% | 1011.1 hPa | 0 mm | - | 131 W/m² | - |
| 1777500627 | 20° C | 77% | 1010.9 hPa | 0 mm | - | 140 W/m² | - |
* Rain latest hour (hover to see other rain measurements)
** Current wind speed in m/s (hover to see current wind gust speed)